TimeEDT,TemperatureF,Dew PointF,Humidity,Sea Level PressureIn,VisibilityMPH,Wind Direction,Wind SpeedMPH,Gust SpeedMPH,PrecipitationIn,Events,Conditions,WindDirDegrees,DateUTC
12:15 AM,72.3,68.4,87,29.89,10.0,NE,3.5,-,N/A,,Mostly Cloudy,40,2013-07-25 04:15:00
12:35 AM,73.0,68.9,87,29.90,10.0,NNE,3.5,-,N/A,,Overcast,30,2013-07-25 04:35:00
12:55 AM,73.2,67.1,81,29.90,10.0,NE,6.9,-,N/A,,Mostly Cloudy,40,2013-07-25 04:55:00
1:15 AM,72.0,66.9,84,29.90,10.0,NNE,5.8,-,N/A,Rain,Light Rain,20,2013-07-25 05:15:00
1:35 AM,71.1,67.1,87,29.90,10.0,East,6.9,-,N/A,,Overcast,80,2013-07-25 05:35:00
1:55 AM,70.2,67.1,90,29.91,10.0,NE,3.5,-,N/A,Rain,Light Rain,50,2013-07-25 05:55:00
2:15 AM,68.9,67.1,94,29.92,1.2,Calm,Calm,-,0.19,Rain,Heavy Rain,0,2013-07-25 06:15:00
2:35 AM,68.5,66.7,94,29.92,7.0,ENE,3.5,-,0.21,Rain,Light Rain,70,2013-07-25 06:35:00
2:55 AM,68.2,66.9,96,29.93,5.0,NNE,3.5,-,0.24,Rain,Heavy Rain,30,2013-07-25 06:55:00
3:15 AM,68.0,67.1,97,29.92,4.0,Calm,Calm,-,0.03,Rain,Rain,0,2013-07-25 07:15:00
3:35 AM,67.5,66.4,96,29.91,5.0,NE,5.8,-,0.07,Rain,Rain,40,2013-07-25 07:35:00
3:55 AM,66.2,64.8,95,29.90,10.0,NNE,4.6,-,0.07,Rain,Light Rain,30,2013-07-25 07:55:00
4:15 AM,65.8,64.6,96,29.91,7.0,North,4.6,-,0.01,,Overcast,10,2013-07-25 08:15:00
4:35 AM,66.2,64.4,94,29.91,10.0,North,4.6,-,0.01,,Mostly Cloudy,10,2013-07-25 08:35:00
4:55 AM,65.8,64.6,96,29.91,7.0,North,4.6,-,0.01,,Mostly Cloudy,350,2013-07-25 08:55:00
5:15 AM,65.5,63.7,94,29.92,10.0,North,6.9,-,N/A,,Mostly Cloudy,10,2013-07-25 09:15:00
5:35 AM,64.8,63.1,94,29.92,10.0,North,4.6,-,N/A,,Mostly Cloudy,10,2013-07-25 09:35:00
5:55 AM,64.8,63.1,94,29.91,10.0,North,3.5,-,N/A,,Mostly Cloudy,10,2013-07-25 09:55:00
6:15 AM,65.3,63.5,94,29.91,10.0,NNE,3.5,-,N/A,,Mostly Cloudy,20,2013-07-25 10:15:00
6:35 AM,65.3,63.5,94,29.92,10.0,Calm,Calm,-,N/A,,Mostly Cloudy,0,2013-07-25 10:35:00
6:55 AM,65.3,63.3,93,29.93,10.0,Calm,Calm,-,N/A,,Scattered Clouds,0,2013-07-25 10:55:00
7:15 AM,65.3,63.0,92,29.94,10.0,Calm,Calm,-,N/A,,Scattered Clouds,0,2013-07-25 11:15:00
7:35 AM,65.3,63.7,94,29.94,10.0,Calm,Calm,-,N/A,,Mostly Cloudy,0,2013-07-25 11:35:00
7:55 AM,66.6,64.4,93,29.94,10.0,Calm,Calm,-,N/A,,Mostly Cloudy,0,2013-07-25 11:55:00
8:15 AM,67.1,64.4,91,29.95,10.0,Calm,Calm,-,N/A,,Overcast,0,2013-07-25 12:15:00
8:35 AM,68.0,64.4,88,29.96,10.0,Calm,Calm,-,N/A,,Overcast,0,2013-07-25 12:35:00
8:55 AM,69.3,63.9,83,29.97,10.0,NNE,4.6,-,N/A,,Overcast,30,2013-07-25 12:55:00
9:15 AM,69.8,63.5,80,29.98,10.0,NNE,5.8,-,N/A,,Mostly Cloudy,30,2013-07-25 13:15:00
9:35 AM,71.2,63.7,77,29.98,10.0,NE,6.9,-,N/A,,Mostly Cloudy,50,2013-07-25 13:35:00
9:55 AM,71.8,63.9,76,29.98,10.0,NE,4.6,-,N/A,,Mostly Cloudy,40,2013-07-25 13:55:00
10:15 AM,72.5,63.3,73,29.98,10.0,NE,5.8,-,N/A,,Scattered Clouds,40,2013-07-25 14:15:00
10:35 AM,72.5,63.3,73,29.98,10.0,NE,4.6,-,N/A,,Mostly Cloudy,40,2013-07-25 14:35:00
10:55 AM,72.5,62.8,71,29.99,10.0,NE,6.9,-,N/A,,Overcast,40,2013-07-25 14:55:00
11:15 AM,72.7,63.7,73,30.00,10.0,NNE,5.8,-,N/A,,Overcast,30,2013-07-25 15:15:00
11:35 AM,74.3,64.4,71,30.00,10.0,NE,4.6,-,N/A,,Overcast,40,2013-07-25 15:35:00
11:55 AM,73.6,63.9,72,30.01,10.0,NE,3.5,-,N/A,,Overcast,40,2013-07-25 15:55:00
12:15 PM,73.6,63.9,72,30.01,10.0,NNE,6.9,-,N/A,,Overcast,30,2013-07-25 16:15:00
12:35 PM,74.3,63.5,69,30.00,10.0,NE,3.5,-,N/A,,Overcast,40,2013-07-25 16:35:00
12:55 PM,74.8,63.9,69,30.00,10.0,NE,4.6,-,N/A,,Overcast,40,2013-07-25 16:55:00
1:15 PM,76.1,64.2,67,30.00,10.0,ENE,4.6,-,N/A,,Overcast,70,2013-07-25 17:15:00
1:35 PM,76.3,64.0,66,30.00,10.0,NE,3.5,-,N/A,,Overcast,50,2013-07-25 17:35:00
1:55 PM,76.3,64.2,66,30.00,7.0,NNE,4.6,-,N/A,,Mostly Cloudy,30,2013-07-25 17:55:00
2:15 PM,77.0,64.6,65,29.99,10.0,ENE,5.8,-,N/A,,Mostly Cloudy,60,2013-07-25 18:15:00
2:35 PM,77.4,64.6,65,29.99,10.0,ENE,3.5,-,N/A,,Scattered Clouds,70,2013-07-25 18:35:00
2:55 PM,78.3,64.8,63,29.99,10.0,ENE,3.5,-,N/A,,Scattered Clouds,70,2013-07-25 18:55:00
3:15 PM,78.3,65.5,65,29.99,10.0,Calm,Calm,-,N/A,,Scattered Clouds,0,2013-07-25 19:15:00
3:35 PM,78.1,65.5,65,29.99,10.0,ENE,3.5,-,N/A,,Scattered Clouds,60,2013-07-25 19:35:00
3:55 PM,78.1,64.9,64,29.98,10.0,Calm,Calm,-,N/A,,Scattered Clouds,0,2013-07-25 19:55:00
4:15 PM,79.3,65.1,62,29.99,10.0,Calm,Calm,-,N/A,,Scattered Clouds,0,2013-07-25 20:15:00
4:35 PM,78.8,65.7,64,29.99,10.0,Calm,Calm,-,N/A,,Scattered Clouds,0,2013-07-25 20:35:00
4:55 PM,79.5,65.8,63,29.99,10.0,ENE,3.5,-,N/A,,Scattered Clouds,60,2013-07-25 20:55:00
5:15 PM,77.5,66.4,68,29.99,10.0,Calm,Calm,-,N/A,,Scattered Clouds,0,2013-07-25 21:15:00
5:35 PM,79.0,64.8,62,29.99,10.0,Calm,Calm,-,N/A,,Scattered Clouds,0,2013-07-25 21:35:00
5:55 PM,79.2,65.8,64,29.98,10.0,ENE,4.6,-,N/A,,Scattered Clouds,60,2013-07-25 21:55:00
6:15 PM,79.0,65.7,64,29.98,10.0,Calm,Calm,-,N/A,,Clear,0,2013-07-25 22:15:00
6:35 PM,79.2,66.0,64,29.98,10.0,Calm,Calm,-,N/A,,Scattered Clouds,0,2013-07-25 22:35:00
6:55 PM,79.3,66.4,64,29.99,10.0,Calm,Calm,-,N/A,,Clear,0,2013-07-25 22:55:00
7:15 PM,78.1,65.8,66,30.00,10.0,Calm,Calm,-,N/A,,Scattered Clouds,0,2013-07-25 23:15:00
7:35 PM,77.2,66.9,71,30.01,10.0,Calm,Calm,-,N/A,,Clear,0,2013-07-25 23:35:00
7:55 PM,73.4,69.8,88,30.01,10.0,Calm,Calm,-,N/A,,Clear,0,2013-07-25 23:55:00
8:15 PM,71.6,69.1,92,30.01,10.0,Calm,Calm,-,N/A,,Clear,0,2013-07-26 00:15:00
8:35 PM,69.6,68.0,95,30.01,7.0,Calm,Calm,-,N/A,,Clear,0,2013-07-26 00:35:00
8:55 PM,68.2,67.1,96,30.01,7.0,Calm,Calm,-,N/A,,Clear,0,2013-07-26 00:55:00
9:15 PM,68.4,67.5,97,30.02,7.0,Calm,Calm,-,N/A,,Clear,0,2013-07-26 01:15:00
9:35 PM,67.1,66.4,98,30.03,5.0,Calm,Calm,-,N/A,,Clear,0,2013-07-26 01:35:00
9:55 PM,66.6,66.0,98,30.04,4.0,Calm,Calm,-,N/A,,Clear,0,2013-07-26 01:55:00
10:15 PM,65.3,64.6,98,30.06,5.0,Calm,Calm,-,N/A,,Clear,0,2013-07-26 02:15:00
10:35 PM,65.8,65.5,99,30.06,5.0,Calm,Calm,-,N/A,,Scattered Clouds,0,2013-07-26 02:35:00
10:55 PM,65.3,64.9,99,30.06,3.0,Calm,Calm,-,N/A,,Scattered Clouds,0,2013-07-26 02:55:00
11:15 PM,64.4,64.0,99,30.06,3.0,Calm,Calm,-,N/A,,Clear,0,2013-07-26 03:15:00
11:35 PM,64.9,64.8,99,30.07,4.0,Calm,Calm,-,N/A,,Clear,0,2013-07-26 03:35:00
11:55 PM,63.7,63.5,99,30.07,4.0,Calm,Calm,-,N/A,,Clear,0,2013-07-26 03:55:00